Location: Abraham Lincoln Continuation High School
(33.9711°N, 117.3662°W)
Time: 14:33:03
(UTC+00:00)

Cosmos 2112 Rocket - Pass Details

Date: 21 September 2020
Orbit: 756 x 787 km, 74.1° (Epoch: 28 October)

Event Time Altitude Azimuth Distance (km) Brightness Sun altitude
Rises 02:02:27 0° 347° (NNW) 3,223 7.5 -3.8°
Reaches altitude 10° 02:04:51 10° 351° (N) 2,297 6.7 -4.3°
Maximum altitude 02:10:00 62° 71° (ENE) 862 4.1 -5.4°
Drops below altitude 10° 02:15:11 10° 152° (SSE) 2,303 6.2 -6.4°
Sets 02:17:35 0° 156° (SSE) 3,231 6.9 -6.9°
